Location: Newark
(63.1158°N, 8.1461°E)
Time: 12:17:29
(UTC+00:00)

Envisat - Pass Details

Date: 15 December 2019
Orbit: 764 x 766 km, 98.1° (Epoch: 20 January)

Event Time Altitude Azimuth Distance (km) Brightness Sun altitude
Rises 06:28:08 0° 18° (NNE) 3,251 6.2 -13.6°
Reaches altitude 10° 06:30:28 10° 22° (NNE) 2,320 5.5 -13.3°
Maximum altitude 06:35:34 65° 104° (ESE) 848 3.5 -12.8°
Drops below altitude 10° 06:40:37 10° 186° (S) 2,304 5.8 -12.3°
Sets 06:42:56 0° 190° (S) 3,226 6.5 -12.1°
